Location: Arbon
(43.0005°N, 0.7472°E)
Time: 00:48:09
(UTC+00:00)

S-56A Canister/Altair - Pass Details

Date: 13 December 2020
Orbit: 633 x 2499 km, 38.9° (Epoch: 19 January)

Event Time Altitude Azimuth Distance (km) Brightness Sun altitude
Rises 19:47:43 0° 282° (WNW) 6,032 13.0 -36.5°
Reaches altitude 10° 19:52:05 10° 278° (W) 4,862 12.3 -37.3°
Maximum altitude 20:04:26 48° 211° (SSW) 2,236 9.8 -39.6°
Enters shadow 20:05:56 46° 189° (S) 2,211 9.7 -39.8°
